METEOR 2-6 DEB

Satellite information

Favourite Embed

Satellite Type and Status

DEBRISIN ORBIT

Key statistics

Satellite METEOR 2-6 DEB at a glance.

Uptime

16532

Days in orbit

Revolutions

≈ 14.3

Per day

Orbit

LEO

Low Earth Orbit

Inclination

81.2

Latest

Satellite identification and parameters

Extended collection of information and parameters for METEOR 2-6 DEB.

Object identification

Identified? True

Debris? True

Object name: METEOR 2-6 DEB

International designator: 1980-073U

Object number (NORAD): 45500

Object ID (CCSDS): 45500

Country: COMMONWEALTH OF INDEPENDENT STATES (CIS)

Current information (Y/N): Y

RCS size: SMALL

Orbital parameters

Period: 100.896 minutes

Inclination: 81.2182 deg

SMA: 7179.219 km

Apoapsis: 835.873 km

Periapsis: 766.295 km

RAAN: 249.2643 deg

Eccentricy: 0.0048458

Argument of periapsis: 241.3724 deg

Mean anomaly: 118.2578 deg

Mean motion: 14.27206852 rev/day

Mean motion (dot): 0.00007456 rev/day2

B* drag term: 0.0030093037 1/REarth

Two-line elements (TLE)

Creation date: Dec. 13, 2025, 4:32 a.m.

Reference frame: TEME

Reference center: EARTH

Epoch: Dec. 13, 2025, 12:18 a.m. UTC

TLE line 0: 0 METEOR 2-6 DEB

TLE line 1: 1 45500U 80073U 25347.01264689 .00007456 00000-0 30093-2 0 9998

TLE line 2: 2 45500 81.2182 249.2643 0048458 241.3724 118.2578 14.27206852474778

Live tracking on map

Real-time ground track for satellite METEOR 2-6 DEB.

In-orbit conjunctions

A list of the most updated potential collisions computed for object METEOR 2-6 DEB.

Target Orbit TCA Probability of collision Miss distance Type
CZ-4C R/B LEO 2025-11-03 04:22:58 0.0001404184 137.0 (m) ROCKET BODY
COSMOS 1680 LEO 2025-05-19 05:14:08 0.0001543446 239.0 (m) PAYLOAD
NOAA 17 DEB SSO 2024-11-10 16:25:15 0.0001215685 250.0 (m) DEBRIS
FENGYUN 1C DEB SSO 2024-07-27 17:04:22 0.0001226702 80.0 (m) DEBRIS

Associated space launch

Second generation soviet meteorological satellite

METEOR 2-6 DEB was lifted into orbit during the mission ‘Vostok 8A92M | Meteor-2 6’, on board a Vostok 8A92M space rocket.

The launch took place on Sept. 9, 1980, 11 a.m. from 43/3 (43L).

For more information about the launch, click the button.

Launch to space Vostok 8A92M | Meteor-2 6
Vostok 8A92M | Meteor-2 6

Agency: N/A

Status: Launch Successful

Launch date: Sept. 9, 1980, 11 a.m. UTC

Rocket: Vostok 8A92M

Launch pad: 43/3 (43L)

Location: Plesetsk Cosmodrome, Russian Federation

...

Latest news about this satellite

There are no fresh news available about this satellite. Check back as we update our databases every day.


Newsletter sign-up

Weekly statistics, charts and insights to help you stay on top of the space industry.